Regional Weather Roundup
Issued by NWS

Home | Current Version | Previous Version | Text Only | Print | Product List | Glossary Off
Versions: 1 2 3 4 5 6 7 8 9 10 11 12 13 14 15 16 17 18 19 20 21 22 23 24 25 26 27

000
ASUS45 KTFX 250110
RWRMT
MONTANA REGIONAL WEATHER ROUNDUP
NATIONAL WEATHER SERVICE GREAT FALLS MT
700 PM MDT THU MAY 24 2018

NOTE: "FAIR" INDICATES FEW OR NO CLOUDS BELOW 12000 FEET WITH NO
SIGNIFICANT WEATHER AND/OR OBSTRUCTIONS TO VISIBILITY.

MTZ001>007-043-250200-
WEST OF THE DIVIDE

CITY           SKY/WX    TMP DP  RH WIND       PRES   REMARKS
KALISPELL      FAIR      72  55  55 S15       29.90F
MISSOULA       FAIR      77  49  37 VRB3      29.94S
BUTTE          PTSUNNY   66  42  41 W8        30.07S
MULLAN PASS    PTSUNNY   59  47  64 CALM      30.10R
ANACONDA         N/A     66  43  42 W9        30.05R
DEER LODGE       N/A     68  45  42 W5        30.04S
HAMILTON         N/A     73  48  40 MISG      30.00F
PLAINS           N/A     74  56  53 CALM      29.93
RONAN            N/A     66  55  68 E12       29.96F
$$

MTZ008-052>055-250200-
SOUTHWEST MONTANA

CITY           SKY/WX    TMP DP  RH WIND       PRES   REMARKS
BOZEMAN        CLOUDY    72  46  39 W9        29.99S
DILLON         PTSUNNY   64  44  48 W15       30.06R
ENNIS          MOSUNNY   64  46  52 S12G17    30.09F
W YELLOWSTONE  FAIR      55  50  82 S6        30.17S
$$

MTZ009-010-012-014-046-048-049-054-250200-
EAST SLOPES AND CENTRAL MONTANA

CITY           SKY/WX    TMP DP  RH WIND       PRES   REMARKS
CUT BANK       FAIR      70  46  42 W28G38    29.86S
GREAT FALLS    FAIR      77  43  29 W23       29.88S
MALMSTROM AFB  FAIR      74  42  30 W17       29.89S
HELENA         FAIR      73  45  36 W14       29.94S
AUGUSTA        FAIR      68  42  38 W21       29.93F
BOWMANS CRNR   FAIR      69  43  38 W18       29.93R
CHOTEAU          N/A     72  45  37 W12G17    29.91F
POWER          FAIR      73  42  33 W17       29.89R
RAYNESFORD     FAIR      71  44  37 SW16      29.92R
ULM            FAIR      73  45  36 W18       29.91R
WHITE SULPHUR    N/A     70  43  37 W15G23    29.99R
$$

MTZ011-013-016-021-045-047-050-051-250200-
NORTH CENTRAL MONTANA

CITY           SKY/WX    TMP DP  RH WIND       PRES   REMARKS
HAVRE          FAIR      79  46  31 SW15G23   29.74S
LEWISTOWN      FAIR      71  47  42 NW16G24   29.91S
N BAR RANCH    FAIR      70  48  46 NW14G20   29.95S
CHINOOK          N/A     81  48  32 MISG      29.74S
DENTON         FAIR      75  46  35 NW16      29.85R
GEYSER         FAIR      71  45  38 W28       29.90R
GRASS RANGE    FAIR      72  44  37 NW17G24   29.86S
JUDITH GAP     FAIR      70  47  43 NW15G22   29.93S
WINIFRED       FAIR      73  46  37 W13G23    29.86S
$$

MTZ017>020-022>027-061-062-250200-
NORTHEAST MONTANA

CITY           SKY/WX    TMP DP  RH WIND       PRES   REMARKS
GLASGOW        FAIR      80  52  37 W15       29.73F
GLENDIVE       FAIR      75  57  53 W10       29.80F
JORDAN           N/A     76  56  49 W12       29.80S
MALTA          SUNNY     79  52  38 SW13G18   29.72S
SIDNEY         FAIR      76  56  49 W12       29.75S
WOLF POINT     LGT RAIN  77  55  46 W16       29.75R
PLENTYWOOD       N/A     73  57  56 W10       29.72F
POPLAR           N/A     79  54  41 SW13      29.75S
SCOBEY           N/A     69  47  45 W6        29.76R
$$

MTZ028>42-056>058-250200-
SOUTHCENTRAL AND SOUTHEAST MONTANA

CITY           SKY/WX    TMP DP  RH WIND       PRES   REMARKS
BAKER          FAIR      75  55  49 W12       29.85F
BILLINGS       FAIR      75  51  43 W14       29.91S
LIVINGSTON     FAIR      72  47  40 SW20G32   29.97S
MILES CITY     FAIR      76  59  55 W7        29.82S
BIG TIMBER     SUNNY     72  46  40 W17G24    29.97S
LAUREL           N/A     77  52  41 W12       29.92S
$$

REGIONAL REPORTS...DAKOTAS

CITY           SKY/WX    TMP DP  RH WIND       PRES   REMARKS
WILLISTON      FAIR      77  55  46 W13       29.73F
MINOT          FAIR      79  51  37 SW18G25   29.70R
DICKINSON      FAIR      76  52  43 W16G26    29.79S
BEACH          PTSUNNY   75  54  46 W15       29.85S
CROSBY         FAIR      70  63  78 SW7       29.71F
TIOGA          FAIR      72  57  60 W12       29.75S
WATFORD CITY   FAIR      77  57  50 W14       29.75S
BISMARCK       FAIR      81  54  39 W14       29.75S
GRAND FORKS    MOCLDY    86  54  33 SW15      29.64S
FARGO          FAIR      85  60  42 S18G29    29.69F
BUFFALO SD       N/A     78  51  38 W16       29.81F
RAPID CITY     FAIR      76  61  59 SE8       29.91F
$$

REGIONAL REPORTS...WYOMING/IDAHO/WASHINGTON

CITY           SKY/WX    TMP DP  RH WIND       PRES   REMARKS
GILLETTE       FAIR      77  47  34 N9        29.95F
SHERIDAN       FAIR      76  53  44 E3        29.94S
BUFFALO WY     FAIR      74  51  44 N7        30.01S
CODY           PTSUNNY   70  43  37 SW10      30.05R
IDAHO FALLS    FAIR      72  48  42 S14       30.07S
SALMON         PTSUNNY   65  54  67 S7        30.05F
BOISE          FAIR      83  47  28 N9        29.92F
SPOKANE        PTSUNNY   79  49  34 SW16      29.92F
$$

REGIONAL REPORTS...ALBERTA

CITY           SKY/WX    TMP DP  RH WIND       PRES   REMARKS
CALGARY        MOSUNNY   79  36  21 W21G28    29.76R
CARDSTON         N/A     73  43  33 W13G20      N/A
EDMONTON       RAIN      68  50  52 SE10      29.70S
FORT MCMURRAY  MOSUNNY   73  54  49 SW10      29.62F
HIGH LEVEL     PTSUNNY   77  52  41 NW8G17    29.61R
LETHBRIDGE     MOSUNNY   77  45  31 W26G35    29.76R
LLOYDMINSTER   PTSUNNY   66  57  72 N3        29.67S
MEDICINE HAT   MOSUNNY   82  43  24 SW12G20   29.66S
PEACE RIVER    PTSUNNY   73  50  43 N13G20    29.69R
PINCHER CREEK    N/A     73  43  33 W24G31    29.85S
WATERTON GATE    N/A     70  45  40 SW13G22     N/A
$$

REGIONAL REPORTS...SASKATCHEWAN

CITY           SKY/WX    TMP DP  RH WIND       PRES   REMARKS
CORONACH         N/A     68  52  56 W9          N/A
CYPRESS HILLS    N/A     72  39  30 SW14G24     N/A
ESTEVAN        PTSUNNY   70  54  56 W10       29.69S
MOOSE JAW        N/A     73  57  56 S3          N/A
PRINCE ALBERT  CLOUDY    70  57  64 VRB2      29.66S
REGINA         PTSUNNY   70  61  73 W3        29.68R
ROCKGLEN         N/A     68  52  56 W8          N/A
SASKATOON      PTSUNNY   79  54  41 NW5       29.63F
SWIFT CURRENT  SUNNY     77  48  36 S12       29.68F
VAL MARIE        N/A     75  46  35 E6          N/A
$$




USA.gov is the U.S. government's official web portal to all federal, state and local government web resources and services.